User: anonymous
Location: Unspecified
(0.0000°N, 0.0000°E)
Time: 21:07:40
(UTC+02:00)
Language:

IUS-9 SRM-1 - Orbit

View from above orbital plane
View from above orbital plane
View from above satellite
View from above satellite

Ground track
Ground track

The orbit data is extracted from the following two-line orbital elements,

1 19884U 89021C   14243.75007738  .00016108  00000-0  16715-2 0   811
2 19884 026.4608 068.5132 6070714 070.0553 004.9504 03.96710698292541
Epoch (UTC): 31 August 2014 18:00:06
Eccentricity: 0.6070714
inclination: 26.4608°
perigee height: 245 km
apogee height: 20710 km
right ascension of ascending node: 68.5132°
argument of perigee: 70.0553°
revolutions per day: 3.96710698
mean anomaly at epoch: 4.9504°
orbit number at epoch: 29254

The dashed part of the orbit path shows where the satellite is in the earth's shadow,  

DLR